Regional Weather Roundup
Issued by NWS

Home | Current Version | Previous Version | Graphics & Text | Print | Product List | Glossary On
Versions: 1 2 3 4 5 6 7 8 9 10 11 12 13 14 15 16 17 18 19 20 21 22 23 24 25 26 27 28 29 30 31 32 33 34 35 36 37 38 39 40 41 42 43 44 45 46 47 48 49 50
000
ASUS43 KBIS 232120
RWRND

NORTH DAKOTA REGIONAL WEATHER ROUNDUP
NATIONAL WEATHER SERVICE BISMARCK ND
400 PM CDT WED APR 23 2014

NOTE: "FAIR" INDICATES FEW OR NO CLOUDS BELOW 12,000 FEET WITH NO
SIGNIFICANT WEATHER AND/OR OBSTRUCTIONS TO VISIBILITY.


NDZ001>003-009>011-017-232200-
NORTHWEST NORTH DAKOTA

CITY           SKY/WX    TMP DP  RH WIND       PRES   REMARKS
WILLISTON      LGT RAIN  47  43  86 W18G25    29.53R
MINOT          RAIN      46  43  89 E24G31    29.55S FOG
MINOT AFB      LGT RAIN  46  46  99 SE25G38   29.55S
$$

NDZ018>021-031>035-040>046-232200-
SOUTHWEST NORTH DAKOTA

CITY           SKY/WX    TMP DP  RH WIND       PRES   REMARKS
BISMARCK       CLOUDY    55  45  68 S14       29.56R
DICKINSON      CLOUDY    48  37  65 W32G43    29.56R
GARRISON         N/A     50  44  80 S13       29.53S
HETTINGER ARPT PTSUNNY   54  35  48 NW28G40   29.62R
$$

NDZ004>008-012>016-024-026-027-054-232200-
NORTHEAST NORTH DAKOTA

CITY           SKY/WX    TMP DP  RH WIND       PRES   REMARKS
GRAND FORKS    LGT RAIN  44  40  85 SE21G33   29.86S FOG
GRND FRKS AFB  LGT RAIN  42  42  99 SE23      29.86R FOG
DEVILS LAKE    CLOUDY    39  34  81 SE25G35   29.74S
$$

NDZ022-023-025-028>030-036>039-047>053-232200-
SOUTHEAST NORTH DAKOTA

CITY           SKY/WX    TMP DP  RH WIND       PRES   REMARKS
FARGO          LGT RAIN  44  38  79 SE25G39   29.83F
JAMESTOWN      CLOUDY    43  39  86 SE22G38   29.69F
$$




USA.gov is the U.S. government's official web portal to all federal, state and local government web resources and services.